Location: Kapuskasing
(49.3803°N, 82.4001°W)
Time: 14:24:10
(UTC-05:00)

RS-44 - Pass Details

Date: 15 December 2025
Orbit: 1174 x 1511 km, 82.5° (Epoch: 21 January)

Event Time Altitude Azimuth Distance (km) Brightness Sun altitude
Exits shadow 04:01:43 15° 351° (N) 3,243 ? -40.5°
Drops below altitude 10° 04:03:08 10° 358° (N) 3,601 ? -40.3°
Sets 04:06:29 0° 9° (N) 4,542 ? -39.8°
